FW1302 Weather Reports


time (UTC)temp
C
wind
direction
speed
KPH
gust
KPH
rain 1hr
cm
rain 24hr
cm
rain mn
cm
humidity
%
barometer
mb
20260904015629 14 201 0.0 0.0 0.00 0.00 0.00 91 1021.0
20260904013629 14 225 3.2 8.0 0.00 0.00 0.00 90 1020.9
20260904012629 14 225 4.8 6.4 0.00 0.00 0.00 89 1020.9
20260904011630 15 180 0.0 0.0 0.00 0.03 0.00 87 1020.8
20260904005729 15 223 3.2 4.8 0.00 0.03 0.00 84 1021.0
20260904004828 15 225 8.0 9.7 0.00 0.03 0.00 84 1021.0
20260904003829 16 220 4.8 8.0 0.00 0.03 0.00 82 1020.9
20260904002829 16 225 4.8 6.4 0.00 0.03 0.00 78 1020.7
20260904000928 16 360 3.2 4.8 0.00 0.03 0.00 76 1020.6
20260903235930 16 22 0.0 1.6 0.00 0.03 0.00 77 1020.6
20260903235832 16 22 1.6 3.2 0.00 0.03 0.00 76 1020.5
20260903234929 16 22 0.0 1.6 0.00 0.03 0.00 76 1020.6
20260903234028 17 22 6.4 6.4 0.00 0.03 0.00 77 1020.7
20260903233030 17 45 3.2 6.4 0.00 0.03 0.00 87 1020.8
20260903230029 15 157 1.6 3.2 0.00 0.03 0.00 85 1021.3
20260903225029 15 157 1.6 3.2 0.00 0.03 0.00 83 1021.4
20260903224128 15 164 3.2 6.4 0.00 0.03 0.00 80 1021.4
20260903221228 16 225 6.4 8.0 0.00 0.03 0.00 79 1021.5
20260903220230 16 221 1.6 4.8 0.00 0.03 0.00 80 1021.4
20260903215229 15 221 1.6 3.2 0.00 0.03 0.00 80 1021.5
20260903214228 15 225 1.6 4.8 0.00 0.03 0.00 81 1021.5
20260903213228 15 214 4.8 8.0 0.00 0.03 0.00 83 1021.4
20260903212229 15 222 8.0 14.5 0.00 0.03 0.00 85 1021.3
20260903211230 14 228 4.8 6.4 0.00 0.03 0.00 85 1021.4
20260903210329 14 157 1.6 4.8 0.00 0.03 0.00 84 1021.4
20260903204332 15 216 12.9 17.7 0.00 0.03 0.00 75 1021.3
20260903203429 16 227 17.7 24.1 0.00 0.03 0.00 78 1021.2
20260903200529 16 45 0.0 0.0 0.00 0.03 0.00 75 1020.9
20260903194529 16 45 9.7 11.3 0.00 0.03 0.00 75 1020.9
20260903193628 16 45 11.3 16.1 0.00 0.03 0.00 73 1021.0
20260903192629 16 45 8.0 11.3 0.00 0.03 0.00 71 1021.0
20260903191728 16 28 11.3 12.9 0.00 0.03 0.00 73 1021.1
20260903190734 16 45 8.0 11.3 0.00 0.03 0.00 75 1021.2
20260903185729 16 45 6.4 9.7 0.00 0.03 0.00 75 1021.3
20260903183828 15 45 4.8 6.4 0.00 0.03 0.00 78 1021.7
20260903182829 15 45 4.8 6.4 0.00 0.03 0.00 78 1021.7
20260903180829 15 45 8.0 11.3 0.00 0.03 0.00 81 1021.7
20260903175828 15 45 9.7 11.3 0.00 0.03 0.00 85 1021.7
20260903173828 14 45 9.7 11.3 0.00 0.03 0.00 89 1021.8
20260903172831 13 45 6.4 9.7 0.00 0.03 0.00 91 1021.8
20260903171927 13 45 4.8 6.4 0.00 0.03 0.00 93 1022.0
20260903170828 13 34 8.0 11.3 0.00 0.03 0.00 94 1022.0
20260903165828 13 360 3.2 8.0 0.00 0.03 0.00 93 1022.0
20260903164828 13 180 0.0 0.0 0.00 0.03 0.00 92 1022.0
20260903163829 12 180 0.0 0.0 0.00 0.03 0.00 92 1022.3
20260903162830 12 180 0.0 0.0 0.00 0.03 0.00 92 1022.3
20260903162728 12 180 0.0 0.0 0.00 0.03 0.00 93 1022.4
20260903161730 12 180 0.0 0.0 0.00 0.03 0.00 92 1022.4
20260903160728 12 180 1.6 8.0 0.00 0.03 0.00 93 1022.4
20260903155730 12 90 0.0 3.2 0.00 0.03 0.00 94 1022.1
20260903154829 12 45 3.2 4.8 0.00 0.03 0.00 93 1022.0
20260903153829 12 90 0.0 0.0 0.00 0.03 0.00 93 1021.9
20260903152830 12 90 4.8 9.7 0.00 0.03 0.00 94 1021.9
20260903151829 12 46 1.6 4.8 0.00 0.03 0.00 94 1021.8
20260903150829 12 35 6.4 11.3 0.00 0.03 0.00 95 1021.9
20260903145829 12 270 0.0 1.6 0.00 0.03 0.00 95 1021.9
20260903144828 12 63 0.0 0.0 0.00 0.03 0.00 96 1021.7
20260903143828 12 47 3.2 6.4 0.00 0.03 0.00 96 1021.7
20260903142830 12 22 0.0 0.0 0.00 0.03 0.00 95 1021.6
20260903141828 12 22 0.0 1.6 0.00 0.03 0.00 96 1021.5
20260903140832 12 22 0.0 1.6 0.00 0.03 0.00 95 1021.4
20260903135831 12 45 0.0 0.0 0.00 0.03 0.00 96 1021.4
20260903134928 12 90 0.0 0.0 0.00 0.03 0.00 96 1021.5
20260903134829 12 90 0.0 0.0 0.00 0.03 0.00 95 1021.4
20260903133829 12 112 1.6 6.4 0.00 0.03 0.00 96 1021.4
20260903132828 12 112 4.8 4.8 0.00 0.03 0.00 95 1021.3
20260903131829 12 112 0.0 0.0 0.00 0.03 0.00 95 1021.3
20260903125828 12 112 0.0 0.0 0.00 0.03 0.00 95 1021.2
20260903123829 12 112 0.0 1.6 0.00 0.03 0.00 95 1021.1
20260903122829 12 112 1.6 3.2 0.00 0.03 0.00 96 1021.3
20260903121830 12 112 1.6 3.2 0.00 0.03 0.00 95 1021.2
20260903120828 12 112 1.6 1.6 0.00 0.03 0.00 95 1021.2
20260903115828 12 112 0.0 0.0 0.00 0.03 0.00 95 1021.2
20260903114829 12 112 1.6 3.2 0.00 0.03 0.00 95 1021.3
20260903113829 12 112 3.2 3.2 0.00 0.03 0.00 95 1021.2
20260903110830 12 112 0.0 0.0 0.00 0.03 0.00 94 1021.3
20260903110729 12 112 0.0 0.0 0.00 0.03 0.00 95 1021.3
20260903105731 12 135 0.0 0.0 0.00 0.03 0.00 94 1021.1
20260903104828 12 135 0.0 0.0 0.00 0.03 0.00 94 1021.1
20260903103829 12 135 0.0 0.0 0.00 0.03 0.00 94 1021.2
20260903102830 12 135 6.4 8.0 0.00 0.03 0.00 94 1020.9
20260903095928 12 135 0.0 1.6 0.00 0.03 0.00 93 1020.8
20260903094930 12 135 3.2 4.8 0.00 0.03 0.00 94 1020.7
20260903093929 12 135 4.8 4.8 0.00 0.03 0.00 92 1020.8
20260903093830 12 135 4.8 4.8 0.00 0.03 0.00 93 1020.9
20260903092929 12 180 0.0 0.0 0.00 0.03 0.00 92 1020.9
20260903092831 12 180 0.0 0.0 0.00 0.03 0.00 92 1020.8
20260903085931 13 180 0.0 3.2 0.00 0.03 0.00 89 1020.8
20260903084928 13 223 3.2 6.4 0.00 0.03 0.00 89 1021.0
20260903082929 13 185 0.0 6.4 0.00 0.03 0.00 88 1020.6
20260903081029 13 225 9.7 16.1 0.00 0.03 0.00 90 1020.5
20260903080029 13 225 12.9 22.5 0.00 0.03 0.00 92 1020.6
20260903075030 13 219 6.4 11.3 0.00 0.03 0.00 93 1020.6
20260903074129 13 226 12.9 17.7 0.00 0.03 0.00 93 1020.7
20260903073129 12 202 4.8 6.4 0.00 0.03 0.00 94 1020.6
20260903072130 12 180 0.0 0.0 0.00 0.03 0.00 94 1020.3
20260903071128 12 202 3.2 3.2 0.00 0.03 0.00 94 1020.3
20260903070129 12 360 0.0 0.0 0.00 0.03 0.00 94 1020.3
20260903064212 12 180 0.0 0.0 0.00 0.03 0.03 95 1020.4
20260903063214 12 180 0.0 0.0 0.00 0.03 0.03 94 1020.3
20260903062211 12 157 0.0 1.6 0.00 0.03 0.03 93 1020.3
20260903061211 12 157 0.0 0.0 0.00 0.03 0.03 93 1020.3
20260903060211 13 157 1.6 3.2 0.00 0.03 0.03 93 1020.5
20260903055213 13 157 4.8 6.4 0.00 0.03 0.03 92 1020.3
20260903054312 13 180 0.0 1.6 0.00 0.03 0.03 92 1020.3
20260903052314 13 246 3.2 6.4 0.00 0.03 0.03 91 1020.3
20260903051411 13 225 4.8 6.4 0.00 0.03 0.03 91 1020.1
20260903051312 13 225 3.2 6.4 0.00 0.03 0.03 91 1020.1
20260903050313 13 224 3.2 4.8 0.00 0.03 0.03 93 1020.1
20260903045412 14 225 3.2 4.8 0.00 0.03 0.03 92 1019.9
20260903044511 14 232 8.0 11.3 0.00 0.03 0.03 92 1019.9
20260903043512 14 225 8.0 11.3 0.00 0.03 0.03 92 1019.9
20260903042511 14 228 12.9 16.1 0.00 0.03 0.03 93 1019.8
20260903041514 14 221 8.0 11.3 0.00 0.03 0.03 93 1019.5
20260903040513 14 225 8.0 11.3 0.00 0.03 0.03 93 1019.5
20260903035512 14 225 9.7 11.3 0.00 0.03 0.03 93 1019.4
20260903034511 14 225 8.0 11.3 0.00 0.03 0.03 93 1019.2
20260903032513 14 223 6.4 9.7 0.00 0.03 0.03 93 1019.2
20260903032411 14 225 6.4 9.7 0.00 0.03 0.03 93 1019.2
20260903031413 14 225 6.4 6.4 0.00 0.03 0.03 93 1019.3
20260903030512 14 225 6.4 9.7 0.00 0.03 0.03 93 1019.2
20260903025513 14 225 9.7 11.3 0.00 0.03 0.03 94 1019.2
20260903024611 14 225 6.4 8.0 0.00 0.03 0.03 93 1019.1
20260903023613 14 207 11.3 17.7 0.00 0.03 0.03 92 1019.1
20260903022614 15 224 11.3 16.1 0.00 0.03 0.03 93 1019.1
20260903021711 15 223 11.3 17.7 0.03 0.03 0.03 93 1018.9
20260903021613 15 225 12.9 19.3 0.03 0.03 0.03 92 1018.9
20260903020614 15 225 6.4 11.3 0.03 0.03 0.03 93 1019.0